Weather observations for the past three days for
Aurora, Aurora Municipal Airport
Imperial (Metric)
Date Time (cdt) Wind (mph) Vis. (mi.) Weather Sky Cond. Temperature (ºF) Relative Humidity Wind Chill (°F) Heat Index (°F) Pressure Precipitation (in)
Air Dwpt 6 hour altimeter (in) sea level (mb) 1 hr 3 hr 6 hr
Max. Min.
21 23:35 Calm 10.00 Fair CLR 67.3 64.8 92% 30.13 0.0
21 23:15 Calm 10.00 Fair CLR 67.8 65.5 92% 30.13 0.0
21 22:55 Calm 10.00 Fair CLR 68 65.8 93% 30.14 0.0
21 22:35 SE 5 10.00 Fair CLR 68.2 66.2 93% 30.13 0.0
21 22:15 E 3 10.00 Partly Cloudy SCT095 67.8 66.2 95% 30.13 0.0
21 21:55 E 3 10.00 Partly Cloudy SCT095 68.9 66.6 92% 30.13 0.0
21 21:35 SE 3 10.00 Partly Cloudy SCT090 69.4 67.3 93% 30.13 0.0
21 21:15 SE 3 10.00 Partly Cloudy SCT090 70.7 67.1 88% 30.12 0.0
21 20:55 Calm 10.00 Mostly Cloudy BKN090 71.1 68 90% 30.13 0.0
21 20:35 E 3 10.00 Mostly Cloudy BKN090 71.6 67.6 87% 30.12 0.0
21 20:15 Calm 10.00 Fair CLR 72.9 67.1 82% 30.12 0.0
21 19:55 SE 5 10.00 Fair CLR 73.8 66.6 78% 30.11 0.0
21 19:35 SE 5 10.00 Fair CLR 75.2 66 73% 77 30.12 0.0
21 19:15 E 6 10.00 Fair CLR 76.3 66 71% 78 30.12 0.0
21 18:55 SE 3 10.00 Fair CLR 77 65.8 78.8 73.2 69% 79 30.11 0.0
21 18:35 SE 6 10.00 Partly Cloudy SCT045 77 66 69% 79 30.11 0.0
21 18:15 E 3 10.00 Mostly Cloudy SCT035 SCT045 BKN085 75.9 66.7 73% 77 30.11 0.0
21 17:55 E 5 10.00 Overcast SCT039 BKN085 OVC100 77.9 66.2 67% 80 30.11 0.0
21 17:35 Calm 10.00 Mostly Cloudy SCT038 SCT043 BKN050 78.3 64.2 62% 80 30.11 0.0
21 17:15 Calm 10.00 Partly Cloudy SCT050 78.1 65.3 65% 80 30.11 0.0
21 16:55 NE 3 10.00 Partly Cloudy SCT033 78.3 64 62% 80 30.12 0.0
21 16:35 Calm 10.00 Partly Cloudy SCT031 77.5 64.6 64% 79 30.12 0.0
21 16:15 Calm 10.00 Partly Cloudy SCT031 77.7 65.8 67% 80 30.13 0.0
21 15:55 Calm 10.00 Partly Cloudy SCT031 SCT048 SCT055 77.7 66 67% 80 30.13 0.0
21 15:35 Calm 10.00 Mostly Cloudy SCT050 BKN055 BKN085 77.4 65.5 67% 79 30.14 0.0
21 15:15 E 3 10.00 Mostly Cloudy SCT036 SCT050 BKN085 75.9 65.8 71% 78 30.15 0.0
21 14:55 Calm 10.00 Partly Cloudy SCT026 BKN036 SCT047 77.4 65.7 67% 79 30.16 0.0
21 14:35 Calm 10.00 Partly Cloudy SCT026 SCT033 SCT047 76.6 66.6 71% 78 30.17 0.0
21 14:15 N 3 10.00 Mostly Cloudy SCT026 SCT047 BKN065 74.7 65.7 74% 30.17 0.0
21 13:55 Calm 10.00 Overcast SCT040 BKN048 OVC060 75.9 65.7 71% 78 30.18 0.0
21 13:35 Calm 10.00 Mostly Cloudy SCT028 SCT040 BKN048 74.3 64.6 72% 30.18 0.0
21 13:15 Calm 10.00 Mostly Cloudy SCT028 BKN039 BKN048 74.7 65.7 74% 30.19 0.0
21 12:55 W 3 10.00 Overcast SCT024 BKN029 OVC043 73.6 65.7 74.7 60.1 76% 30.19 0.0
21 12:35 Calm 10.00 Overcast BKN022 BKN030 OVC041 74.3 65.3 74% 30.19 0.0
21 12:15 Calm 10.00 Overcast SCT035 BKN041 OVC049 74.1 64.4 72% 30.19 0.0
21 11:55 Calm 10.00 Overcast SCT015 SCT026 OVC040 72.7 65.1 77% 30.2 0.0
21 11:35 SE 6 10.00 Overcast BKN013 BKN026 OVC044 72.5 66.4 81% 30.2 0.0
21 11:15 SE 6 10.00 Overcast BKN011 BKN036 OVC044 69.1 67.8 96% 30.2 0.0
21 10:55 SE 7 10.00 Overcast BKN009 BKN018 OVC035 68.5 68.2 99% 30.2 0.0
21 10:35 E 6 10.00 Overcast BKN006 OVC011 68 67.5 98% 30.2 0.0
21 10:15 NE 5 7.00 Overcast OVC004 66.9 66.4 98% 30.2 0.0
21 09:55 NE 3 2.50 Fog/Mist OVC002 65.8 65.3 98% 30.19 0.0
21 09:35 NE 5 0.50 Fog OVC002 65.1 64.6 98% 30.19 0.0
21 09:15 Calm 0.15 Fog OVC002 64.6 64 98% 30.19 0.0
21 08:55 Calm 0.15 Fog OVC002 64 63.5 98% 30.19 0.0
21 08:35 Calm 0.15 Fog OVC002 63.5 62.8 98% 30.19 0.0
21 08:15 Calm 0.15 Fog OVC002 62.8 62.4 99% 30.19 0.0
21 07:55 Calm 0.15 Fog OVC002 62.2 61.7 98% 30.18 0.0
21 07:35 Calm 0.15 Fog OVC002 61.7 61 98% 30.18 0.0
21 07:15 Calm 0.15 Fog OVC002 60.3 59.9 99% 30.18 0.0
21 06:55 Calm 0.15 Fog OVC002 60.1 59.5 63.9 58.5 98% 30.18 0.0 0.01
21 06:35 Calm 0.15 Fog OVC002 59.4 59 99% 30.17 0.0
21 06:15 Calm 0.25 Fog OVC002 59.2 58.6 98% 30.16 0.0
21 05:55 Calm 0.50 Fog OVC002 59.2 58.8 99% 30.16 0.0 0.01
21 05:35 Calm 0.50 Fog OVC002 60.8 60.3 98% 30.16 0.0
21 05:15 Calm 0.15 Fog OVC002 61 60.8 99% 30.15 0.0
21 04:55 Calm 2.00 Fog/Mist SCT002 60.8 60.4 99% 30.15 0.0
21 04:35 Calm 3.00 Fog/Mist SCT002 61.7 61.2 98% 30.15 0.0
21 04:15 Calm 0.75 Fog/Mist OVC002 61.7 61.3 99% 30.16 0.0
21 03:55 Calm 1.00 Fog/Mist BKN002 OVC027 62.1 61.7 99% 30.16 0.0
21 03:35 Calm 0.25 Fog OVC002 61.9 61.5 99% 30.16 0.0
21 03:15 Calm 0.25 Fog OVC002 61.7 61.2 98% 30.16 0.0
21 02:55 Calm 0.15 Fog OVC002 61.7 61.2 98% 30.16 0.0
21 02:35 Calm 0.25 Fog OVC002 62.1 61.7 99% 30.17 0.0
21 02:15 Calm 0.25 Fog OVC002 62.2 61.7 98% 30.17 0.0
21 01:55 Calm 0.25 Fog OVC002 62.8 62.2 98% 30.17 0.0
21 01:35 Calm 0.50 Fog BKN002 61.9 61.2 98% 30.17 0.0
21 01:15 Calm 3.00 Fog/Mist CLR 63.5 63 98% 30.17 0.0
21 00:55 Calm 3.00 Fog/Mist CLR 63.9 63.5 73.9 63.9 99% 30.17 0.0 0.04
21 00:35 E 3 3.00 Fog/Mist CLR 64.4 63.7 98% 30.17 0.0
21 00:15 E 3 5.00 Fog/Mist SCT060 64.8 64.4 99% 30.17 0.0
20 23:55 E 5 7.00 Mostly Cloudy BKN060 65.3 64.4 97% 30.17 0.0
20 23:35 E 3 7.00 Mostly Cloudy BKN025 65.7 64.9 98% 30.17 0.0
20 23:15 Calm 10.00 Mostly Cloudy BKN020 BKN026 66.2 65.5 98% 30.16 0.0
20 22:55 Calm 10.00 Fair CLR 66.2 65.3 97% 30.16 0.0
20 22:35 Calm 10.00 Fair CLR 67.1 66.2 97% 30.16 0.0
20 22:15 SE 5 10.00 Partly Cloudy SCT100 67.3 66.4 97% 30.15 0.0
20 21:55 SE 3 10.00 Mostly Cloudy SCT065 BKN100 68.2 66.9 96% 30.15 0.0 0.04
20 21:35 SE 3 10.00 Overcast SCT065 OVC090 68.7 67.5 96% 30.13 0.0
20 21:15 E 5 10.00 Overcast SCT036 BKN065 OVC090 69.3 67.5 94% 30.13 0.0
20 20:55 Calm 10.00 Mostly Cloudy SCT048 BKN065 BKN075 69.3 68 96% 30.12 0.0
20 20:35 Calm 10.00 Mostly Cloudy SCT050 SCT065 BKN120 70 68 93% 30.12 0.0
20 20:15 Calm 10.00 Mostly Cloudy SCT050 SCT065 BKN120 70.2 68 93% 30.11 0.0
20 19:55 SE 3 10.00 Mostly Cloudy SCT050 BKN065 BKN080 71.1 68 90% 30.12 0.0 0.04
20 19:35 SE 5 5.00 Heavy Rain SCT023 BKN050 OVC065 70.7 68.2 92% 30.11 0.0 0.04
20 19:15 SE 5 10.00 Light Rain SCT035 SCT050 BKN065 73.6 66.4 78% 30.11 0.0
20 18:55 E 3 10.00 Partly Cloudy SCT031 SCT060 SCT110 74.3 66.2 76.8 70.2 76% 30.12 0.0
20 18:35 SE 6 10.00 Mostly Cloudy SCT025 SCT033 BKN060 74.7 66.2 75% 30.11 0.0
20 18:15 Calm 10.00 Mostly Cloudy BKN025 BKN048 75.7 66 72% 77 30.1 0.0
20 17:55 Calm 10.00 Partly Cloudy SCT028 SCT055 SCT075 75.7 66 72% 77 30.11 0.0
20 17:35 SE 3 10.00 Overcast SCT028 BKN042 OVC075 74.7 65.5 73% 30.11 0.0
20 17:15 E 3 10.00 Mostly Cloudy BKN026 BKN042 BKN050 76.6 66.2 70% 78 30.11 0.0
20 16:55 SE 3 10.00 Partly Cloudy SCT026 75.7 65.1 70% 77 30.11 0.0
20 16:35 SE 3 10.00 Partly Cloudy SCT025 SCT032 SCT049 75.4 66.4 74% 77 30.11 0.0
20 16:15 SE 5 10.00 Mostly Cloudy SCT024 SCT030 BKN049 75.4 65.5 71% 77 30.11 0.0
20 15:55 E 3 10.00 Mostly Cloudy SCT024 SCT030 BKN048 75.4 65.8 72% 77 30.11 0.0
20 15:35 E 6 10.00 Mostly Cloudy SCT022 SCT028 BKN047 75.2 66.6 75% 76 30.12 0.0
20 15:15 Calm 10.00 Mostly Cloudy SCT026 BKN034 BKN050 74.8 66 74% 30.12 0.0
20 14:55 NE 3 10.00 Mostly Cloudy BKN024 BKN031 BKN055 73.9 65.7 75% 30.13 0.0
20 14:35 NE 5 10.00 Partly Cloudy SCT022 SCT055 74.3 65.5 74% 30.13 0.0
20 14:15 Calm 10.00 Fair CLR 73.4 65.5 76% 30.13 0.0
20 13:55 Calm 10.00 Partly Cloudy SCT035 72.1 65.7 80% 30.14 0.0
20 13:35 W 3 10.00 Overcast SCT018 OVC035 70.5 65.5 84% 30.15 0.0
20 13:15 NW 6 10.00 Overcast BKN018 BKN025 OVC033 70.5 65.8 85% 30.15 0.0
20 12:55 Calm 10.00 Overcast SCT016 BKN029 OVC033 70.2 64.6 70.7 63.5 83% 30.15 0.0 0.01
20 12:35 Calm 10.00 Overcast SCT012 OVC026 70.2 64.8 83% 30.14 0.0
20 12:15 S 3 10.00 Overcast BKN012 OVC024 68.9 64.2 85% 30.14 0.0
20 11:55 S 5 10.00 Overcast OVC012 68.4 64.4 87% 30.14 0.0
20 11:35 S 3 10.00 Overcast OVC010 68.2 63.9 86% 30.14 0.0
20 11:15 SW 5 10.00 Overcast OVC010 68 64.2 88% 30.13 0.0
20 10:55 Calm 10.00 Overcast OVC008 66.9 64 91% 30.14 0.0
20 10:35 Calm 10.00 Overcast OVC008 65.7 63.5 93% 30.14 0.0
20 10:15 Calm 10.00 Overcast OVC006 64.9 63.1 94% 30.13 0.0
20 09:55 Calm 10.00 Overcast OVC006 64.9 63.3 95% 30.13 0.0 0.01 0.01
20 09:35 SE 3 10.00 Overcast OVC006 64.8 63.3 95% 30.13 0.0
20 09:15 SE 3 10.00 Overcast OVC006 64.6 63.1 95% 30.13 0.0
20 08:55 SE 3 10.00 Overcast BKN006 OVC010 64.2 63 96% 30.12 0.0
20 08:35 SE 3 10.00 Overcast OVC006 64 63 96% 30.12 0.0
20 08:15 SE 3 10.00 Overcast OVC006 63.7 62.8 97% 30.11 0.0
20 07:55 Calm 10.00 Overcast OVC006 63.5 62.6 97% 30.11 0.0
20 07:35 E 3 10.00 Overcast OVC006 63.7 62.8 97% 30.11 0.0
20 07:15 Calm 10.00 Overcast OVC006 63.7 62.8 97% 30.1 0.0
20 06:55 SE 7 10.00 Overcast OVC006 63.7 62.8 66.6 62.6 97% 30.09 0.0
20 06:35 SE 7 10.00 Overcast BKN005 OVC008 64 63.5 98% 30.09 0.0
20 06:15 E 3 10.00 Overcast OVC008 64.2 63.5 98% 30.09 0.0
20 05:55 E 3 10.00 Overcast OVC010 64.4 63.5 97% 30.09 0.0
20 05:35 SE 3 10.00 Overcast OVC010 64 63.5 98% 30.09 0.0
20 05:15 SE 5 10.00 Overcast OVC010 64 63.5 98% 30.08 0.0
20 04:55 Calm 10.00 Overcast OVC012 63.3 62.6 98% 30.08 0.0
20 04:35 Calm 10.00 Mostly Cloudy SCT012 BKN070 62.8 62.1 98% 30.08 0.0
20 04:15 Calm 10.00 Partly Cloudy SCT012 SCT070 63.3 62.6 98% 30.08 0.0
20 03:55 SE 5 10.00 Partly Cloudy SCT013 SCT023 63.5 62.6 97% 30.07 0.0
20 03:35 SE 6 10.00 Partly Cloudy SCT013 SCT023 63.5 62.8 98% 30.07 0.0
20 03:15 SE 7 10.00 Mostly Cloudy BKN013 63.9 63 97% 30.07 0.0
20 02:55 E 3 10.00 Partly Cloudy SCT013 64.2 63 96% 30.08 0.0
20 02:35 Calm 10.00 Mostly Cloudy SCT013 BKN070 66 63.9 93% 30.08 0.0
20 02:15 NE 3 10.00 Mostly Cloudy SCT013 BKN070 66.4 64 92% 30.08 0.0
20 01:55 S 5 10.00 Fair CLR 66.6 64.2 92% 30.06 0.0
20 01:35 SE 8 10.00 Fair CLR 65.8 64.4 95% 30.06 0.0
20 01:15 SE 3 10.00 Thunderstorm in Vicinity SCT120 64 62.8 96% 30.06 0.0
20 00:55 E 3 10.00 Light Rain BKN110 63.5 62.4 72 62.8 96% 30.06 0.0 0.01 0.68
20 00:35 Calm 10.00 Thunderstorm Light Rain in Vicinity BKN110 63.5 61.9 95% 30.07 0.0 0.01
20 00:15 SW 7 10.00 Thunderstorm Drizzle in Vicinity SCT070 SCT095 BKN120 63.1 61.7 95% 30.07 0.0
19 23:55 W 3 7.00 Thunderstorm Rain SCT012 BKN070 OVC095 63.5 62.2 96% 30.1 0.0 0.18
19 23:35 S 9 7.00 Thunderstorm Rain SCT012 BKN080 OVC100 65.1 62.8 92% 30.1 0.0 0.12
19 23:15 W 3 5.00 Thunderstorm Rain SCT048 BKN055 OVC085 67.1 65.5 95% 30.1 0.0 0.06
19 22:55 SW 10 4.00 Thunderstorm Heavy Rain SCT022 BKN047 OVC055 67.1 65.1 93% 30.1 0.0 0.44
19 22:35 NW 6 3.00 Thunderstorm Heavy Rain SCT019 BKN042 OVC060 68 66.2 94% 30.11 0.0 0.24
19 22:15 NE 10 5.00 Thunderstorm Heavy Rain SCT035 SCT042 OVC075 68.5 66.9 95% 30.05 0.0 0.06
19 21:55 NE 6 10.00 Mostly Cloudy BKN075 BKN095 BKN120 68.5 66.7 94% 30.04 0.0
19 21:35 SE 5 10.00 Partly Cloudy SCT060 SCT070 SCT100 68.2 66.4 94% 30.03 0.0
19 21:15 E 6 10.00 Mostly Cloudy BKN100 69.1 66.4 91% 30.03 0.0
19 20:55 E 6 10.00 Mostly Cloudy BKN100 68.4 66.2 93% 30.02 0.0
19 20:35 SE 8 10.00 Partly Cloudy SCT120 68.9 66 91% 30.02 0.0
19 20:15 E 7 10.00 Partly Cloudy SCT120 69.3 66.2 90% 30.03 0.0
19 19:55 E 7 10.00 Partly Cloudy SCT120 70.7 66 85% 30.03 0.0
19 19:35 SE 9 10.00 Partly Cloudy SCT120 71.1 66.2 85% 30.02 0.0
19 19:15 SE 8 10.00 Partly Cloudy SCT075 71.8 66.7 84% 30.02 0.0
19 18:55 SE 8 10.00 Partly Cloudy SCT075 70.2 67.5 80.4 69.1 91% 30.02 0.0 0.06 0.08
19 18:35 SE 12 10.00 Partly Cloudy SCT120 69.4 67.6 94% 30.02 0.0 0.06
19 18:15 E 7 5.00 Thunderstorm Light Rain in Vicinity SCT060 SCT075 BKN120 69.8 68 94% 30.05 0.0 0.06
19 17:55 E 6 10.00 Mostly Cloudy SCT070 BKN080 70.7 67.3 89% 30.06 0.0
19 17:35 E 9 10.00 Mostly Cloudy SCT041 SCT050 BKN110 72 67.8 87% 30.06 0.0
19 17:15 E 7 10.00 Thunderstorm Light Rain SCT050 SCT070 OVC110 72.1 68.9 90% 30.07 0.0
19 16:55 E 5 10.00 Mostly Cloudy SCT100 BKN120 72.5 68.9 89% 30.07 0.0
19 16:35 SE 5 10.00 Partly Cloudy SCT120 72.9 68.4 86% 30.06 0.0
19 16:15 S 9 10.00 Thunderstorm in Vicinity SCT120 71.8 68.2 88% 30.06 0.0
19 15:55 S 10 10.00 Light Rain SCT039 SCT070 BKN090 70.9 66.6 86% 30.07 0.0 0.02 0.02
19 15:35 SW 10 10.00 Thunderstorm Light Rain SCT044 BKN065 OVC090 70.2 64.9 84% 30.09 0.0
19 15:15 W 6 10.00 Light Rain SCT055 OVC065 75 68.7 81% 76 30.11 0.0
19 14:55 SW 6 10.00 Light Rain BKN065 BKN120 77.2 65.5 67% 79 30.09 0.0
19 14:35 S 8 10.00 Thunderstorm in Vicinity SCT120 78.1 64.2 63% 80 30.09 0.0
19 14:15 S 7 10.00 Partly Cloudy SCT065 78.8 64.2 61% 81 30.09 0.0
19 13:55 S 9 10.00 Mostly Cloudy BKN065 77.9 63.9 62% 80 30.1 0.0
19 13:35 S 10 10.00 Mostly Cloudy BKN065 78.4 62.8 59% 80 30.1 0.0
19 13:15 S 12 G 21 10.00 Fair CLR 78.3 62.6 59% 80 30.1 0.0
19 12:55 S 15 G 21 10.00 Fair CLR 80.4 63.5 81.7 61 56% 82 30.1 0.0
19 12:35 S 14 G 21 10.00 Thunderstorm in Vicinity CLR 81 63.9 56% 82 30.08 0.0
19 12:15 S 14 G 18 10.00 Thunderstorm in Vicinity CLR 79.9 62.4 55% 81 30.09 0.0
19 11:55 S 13 G 17 10.00 Fair CLR 78.3 62.4 58% 80 30.1 0.0
19 11:35 S 9 10.00 Fair CLR 77.5 63.3 62% 79 30.11 0.0
19 11:15 S 13 G 18 10.00 Fair CLR 75.4 61.3 62% 78 30.12 0.0
19 10:55 S 14 10.00 Fair CLR 74.8 60.8 62% 30.11 0.0
19 10:35 S 13 10.00 Fair CLR 73.2 60.4 64% 30.11 0.0
19 10:15 S 13 10.00 Fair CLR 71.8 60.6 68% 30.13 0.0
19 09:55 S 13 10.00 Fair CLR 70.9 59.7 68% 30.13 0.0
19 09:35 S 14 G 18 10.00 Fair CLR 70.7 59.7 68% 30.13 0.0
19 09:15 S 12 G 17 10.00 Fair CLR 68.7 59.2 72% 30.14 0.0
19 08:55 S 13 10.00 Fair CLR 67.1 58.5 74% 30.13 0.0
19 08:35 S 10 10.00 Fair CLR 64.9 57.7 78% 30.13 0.0
19 08:15 S 9 10.00 Fair CLR 63.5 57.7 82% 30.14 0.0
19 07:55 S 9 10.00 Fair CLR 62.2 57.2 84% 30.15 0.0
19 07:35 S 9 10.00 Fair CLR 61.9 57.2 85% 30.15 0.0
19 07:15 S 9 10.00 Fair CLR 61.2 57.2 87% 30.13 0.0
19 06:55 S 10 10.00 Fair CLR 61.3 57.2 64.4 61.3 86% 30.13 0.0
19 06:35 S 10 10.00 Fair CLR 61.5 57.4 86% 30.13 0.0
19 06:15 S 9 10.00 Fair CLR 61.7 57.6 86% 30.13 0.0
19 05:55 S 9 10.00 Fair CLR 62.2 57.6 85% 30.13 0.0
19 05:35 S 8 10.00 Fair CLR 62.6 57.7 84% 30.13 0.0
19 05:15 S 9 10.00 Fair CLR 62.6 57.7 84% 30.13 0.0
19 04:55 S 13 10.00 Fair CLR 63 57.9 84% 30.13 0.0
19 04:35 S 10 10.00 Fair CLR 62.6 58.1 85% 30.13 0.0
19 04:15 S 8 10.00 Fair CLR 62.6 58.6 87% 30.14 0.0
19 03:55 S 12 10.00 Partly Cloudy SCT090 63 58.6 86% 30.13 0.0
19 03:35 S 9 10.00 Partly Cloudy SCT090 63.1 58.6 85% 30.15 0.0
19 03:17 S 8 10.00 Partly Cloudy SCT085 62.6 59 88% 30.15 0.0
19 02:56 S 6 10.00 Mostly Cloudy BKN085 62.6 59 88% 30.15 0.0
19 02:35 S 9 10.00 Partly Cloudy SCT085 64.2 59 83% 30.15 0.0
19 02:15 S 8 10.00 Fair CLR 63.5 59.4 86% 30.16 0.0
19 01:55 S 9 10.00 Fair CLR 63.3 59.9 89% 30.15 0.0
19 01:35 SE 9 10.00 Fair CLR 63.5 59.9 88% 30.15 0.0
19 01:15 SE 8 10.00 Fair CLR 63.7 60.3 89% 30.16 0.0
19 00:55 SE 8 10.00 Fair CLR 64 60.4 79 64 88% 30.17 0.0
19 00:35 SE 8 10.00 Fair CLR 64.2 60.6 88% 30.17 0.0
19 00:15 SE 8 10.00 Fair CLR 64.6 60.8 88% 30.17 0.0
Date Time (cdt) Wind (mph) Vis. (mi.) Weather Sky Cond. Air Dwpt Max. Min. Relative Humidity Wind Chill (°F) Heat Index (°F) altimeter (in) sea level (mb) 1 hr 3 hr 6 hr
6 hour
Temperature (ºF) Pressure Precipitation (in)